Regional Weather Roundup
Issued by NWS

Home | Current Version | Previous Version | Text Only | Print | Product List | Glossary Off
Versions: 1 2 3 4 5 6 7 8 9 10 11 12 13 14 15 16 17 18 19 20 21 22 23 24 25 26 27 28 29 30 31 32 33 34 35 36 37 38 39 40 41 42 43 44 45 46 47 48 49 50

000
ASUS45 KBOI 202010
RWRID
WEATHER ROUNDUP FOR IDAHO
NATIONAL WEATHER SERVICE BOISE ID
200 PM MDT MON APR 20 2015

NOTE: "FAIR" INDICATES FEW OR NO CLOUDS BELOW 12000 FEET
WITH NO SIGNIFICANT WEATHER AND/OR OBSTRUCTIONS TO VISIBILITY

IDZ012-014-202100-
SOUTHWEST IDAHO


CITY           SKY/WX    TMP DP  RH WIND       PRES   REMARKS
BOISE          SUNNY     69  31  24 VRB3      29.91F
CALDWELL       SUNNY     68  36  30 SW3       29.92F
$$

IDZ016-017-202100-
SOUTHCENTRAL IDAHO


CITY           SKY/WX    TMP DP  RH WIND       PRES   REMARKS
BURLEY         SUNNY     64  28  25 MISG      29.92F
JEROME         SUNNY     63  27  25 VRB5      29.94F
TWIN FALLS     SUNNY     67  28  23 W10G17    29.94F
$$

IDZ019>023-202100-
SOUTHEAST IDAHO


CITY           SKY/WX    TMP DP  RH WIND       PRES   REMARKS
IDAHO FALLS    SUNNY     61  23  23 CALM      29.95F
POCATELLO      SUNNY     64  24  21 NW13      29.95F
REXBURG        SUNNY     60  24  25 VRB5      29.93F
$$

IDZ006-010-011-018-031-032-202100-
CENTRAL IDAHO MOUNTAINS


CITY           SKY/WX    TMP DP  RH WIND       PRES   REMARKS
MCCALL         MOSUNNY   62  26  25 VRB7      29.93F
HAILEY         MOSUNNY   61  30  31 SE12G21   29.96F
STANLEY          N/A     58  19  22 CALM      29.98F
SALMON         SUNNY     63  27  25 N3        29.90F
CHALLIS        SUNNY     62  21  20 NE6       29.91F
$$

IDZ002-004-006-007-026-202100-
NORTHERN IDAHO


CITY           SKY/WX    TMP DP  RH WIND       PRES   REMARKS
LEWISTON       SUNNY     70  38  31 CALM      29.91F
LOWELL           N/A     71  36  27 S6        29.88F
COEUR D`ALENE  MOSUNNY   66  39  37 SW7       29.92F
MULLAN PASS    SUNNY     53  25  33 NW7       29.98F
$$



USA.gov is the U.S. government's official web portal to all federal, state and local government web resources and services.